Showing default

IRIDIUM 138, 43071

Orbit data source: Space-Track

IRIDIUM 138, 43071 is a payload satellite owned by Iridium (US) in LEO that was launched on Sat, 23 Dec 2017 UTC via an FALCON 9 launch vehicle from the Air Force Western Test Range (AFWTR). Payload-class satellites include a variety of spacecraft equipped with specific instruments for various scientific and technological missions. These include communications satellites like Starlink; space stations such as the ISS; scientific satellites like the Hubble; Earth observation satellites from companies like Planet Labs, Umbra, and HawkEye 360; GPS; miniature CubeSats for education and research; and military/defense satellites.

Loading next visibility...
Identifier
43071, 2017-083B
Orbit
LEO
Country
Flag of USUS
Related business
Manufacturer
OATK SSG Gilbert
Mission
Operational Commercial Communications
Bus & Motor
ELITEBUS, Unknown motor
Mass
860 kg wet, 700 kg dry
Launch date (UTC)
2017-12-23 (8 years ago)
Launch vehicle
FALCON 9
Launch site
Air Force Western Test Range (AFWTR)
Object type
Payload
Rocket body
Debris
Shape & HBR
Trap Box + 2 Pan, 4.8 m
Radar Cross Section
10.154 m², Large (>1 m²)

Expand to show TLE details & history
Last TLE update: 10 hours ago

TLE from 10 hours ago
0 IRIDIUM 138
1 43071U 17083B   26128.12980544  .00000015  00000-0 -15414-5 0  9993
2 43071  86.3979 338.4585 0002112  95.5617 264.5820 14.34217588438391
Epoch: 2026-05-08T03:06Z
TLE epoch observation values (Epoch: 2026-05-08T03:06:55.190Z)
Latitude
0.00003°
Longitude
65.76253°
Altitude
780.862 km
Speed
7.463 km/s
True Right ascension
22h 33m 50s
True Declination
0° 00' 00"
Sunlit
Object was in daylight at epoch
Visualization orbit readout
Latitude
Unknown
Longitude
Unknown
Altitude
Unknown
Speed
Unknown
Apparent Right ascension
Unknown
Apparent Declination
Unknown
Sunlit
N/A
Visualization observer readout
Local Sidereal Time
21:38:05
Azimuth
Unknown
Elevation
Unknown
Doppler factor
Unknown
Orbital elements
Apogee altitude
776.143 km
Perigee altitude
773.121 km
Semi-major axis
7,152.769 km
Eccentricity
0.00021
Inclination
86.3979°
RAAN
338.4585°
Arg. of periapsis
95.5617°
True anomaly
264.55791°
Mean anomaly
264.582°
Eccentric anomaly
264.56995°
Mean motion
3.58783 °/min
Orbital period
100.34 mins
BSTAR
-0.0000015414
Loading maneuver chart data...
Computing Atmospheric mass density...
Loading historical data...
Loading historical data...
Loading historical data...
Loading historical data...
Loading historical data...
Loading historical data...
Loading historical data...

Documentation

Showing up to 5 results
|